QPF
0.00 0.01 0.02 0.03 0.04 0.05 0.03 0.02 0.02 0.02 0.02 0.02 0.03 0.02 0.02 0.02 0.02 0.02 0.01 0.01 0.02 0.02 0.02 0.03 0.04 0.04 0.03 0.02 0.02 0.01 0.02 0.01 0.01 0.01 0.02 0.01 0.01 0.01 0.02 0.02 0.01 0.01 0.02
0.00 0.01 0.02 0.03 0.03 0.03 0.02 0.01 0.01 0.02 0.02 0.02 0.04 0.03 0.03 0.03 0.03 0.02 0.01 0.01 0.02 0.02 0.02 0.02 0.04 0.04 0.03 0.02 0.01 0.01 0.01 0.00 0.00 0.00 0.01 0.01 0.01 0.02 0.02 0.02 0.01 0.01 0.01
0.00 0.01 0.02 0.02 0.03 0.03 0.02 0.01 0.01 0.01 0.02 0.02 0.02 0.03 0.03 0.03 0.03 0.02 0.02 0.01 0.02 0.02 0.02 0.02 0.04 0.04 0.03 0.03 0.02 0.01 0.00 0.00 0.00 0.00 0.00 0.00 0.02 0.03 0.02 0.01 0.01 0.01 0.01
0.01 0.02 0.02 0.03 0.03 0.03 0.02 0.02 0.01 0.01 0.01 0.02 0.02 0.03 0.03 0.02 0.03 0.03 0.02 0.01 0.01 0.03 0.03 0.02 0.03 0.03 0.03 0.03 0.03 0.02 0.01 0.00 0.00 0.00 0.00 0.01 0.02 0.03 0.02 0.01 0.02 0.02 0.01
0.02 0.02 0.03 0.04 0.04 0.03 0.03 0.04 0.03 0.02 0.02 0.02 0.02 0.03 0.03 0.02 0.02 0.02 0.02 0.02 0.01 0.02 0.02 0.02 0.02 0.02 0.02 0.03 0.03 0.02 0.01 0.00 0.00 0.00 0.00 0.00 0.01 0.02 0.02 0.01 0.01 0.01 0.01
0.02 0.02 0.04 0.05 0.05 0.05 0.04 0.04 0.04 0.03 0.03 0.02 0.02 0.03 0.03 0.02 0.02 0.03 0.03 0.02 0.02 0.02 0.02 0.01 0.01 0.02 0.02 0.03 0.02 0.02 0.01 0.00 0.00 0.00 0.00 0.00 0.00 0.01 0.01 0.01 0.01 0.01 0.01
0.02 0.03 0.04 0.05 0.06 0.06 0.05 0.03 0.04 0.03 0.02 0.02 0.02 0.02 0.03 0.03 0.03 0.03 0.03 0.03 0.02 0.02 0.02 0.01 0.01 0.01 0.02 0.03 0.01 0.00 0.00 0.00 0.00 0.00 0.00 0.00 0.01 0.01 0.02 0.01 0.01 0.01 0.01
0.02 0.03 0.04 0.05 0.06 0.07 0.07 0.06 0.05 0.04 0.03 0.02 0.02 0.02 0.03 0.03 0.03 0.04 0.04 0.03 0.03 0.03 0.03 0.03 0.02 0.01 0.02 0.01 0.00 0.00 0.00 0.00 0.00 0.00 0.00 0.00 0.02 0.02 0.02 0.02 0.02 0.01 0.01
0.04 0.05 0.05 0.06 0.08 0.09 0.09 0.08 0.07 0.05 0.03 0.02 0.02 0.02 0.02 0.02 0.03 0.04 0.04 0.03 0.03 0.03 0.04 0.04 0.02 0.02 0.02 0.01 0.00 0.00 0.00 0.00 0.00 0.00 0.00 0.01 0.03 0.04 0.03 0.03 0.03 0.02 0.01
0.06 0.07 0.07 0.07 0.07 0.08 0.08 0.08 0.08 0.06 0.04 0.03 0.03 0.02 0.02 0.02 0.04 0.04 0.03 0.03 0.02 0.03 0.04 0.04 0.03 0.02 0.01 0.01 0.00 0.00 0.00 0.00 0.00 0.00 0.00 0.01 0.03 0.04 0.04 0.04 0.04 0.02 0.01
0.07 0.07 0.08 0.07 0.07 0.08 0.09 0.10 0.10 0.09 0.06 0.05 0.04 0.02 0.01 0.01 0.02 0.04 0.03 0.02 0.02 0.02 0.03 0.03 0.03 0.02 0.01 0.01 0.01 0.01 0.00 0.00 0.00 0.00 0.00 0.01 0.03 0.04 0.03 0.04 0.05 0.03 0.02
0.07 0.07 0.09 0.08 0.06 0.06 0.07 0.09 0.10 0.10 0.07 0.06 0.05 0.04 0.02 0.01 0.01 0.02 0.03 0.02 0.03 0.02 0.03 0.03 0.03 0.02 0.02 0.02 0.02 0.01 0.01 0.00 0.00 0.00 0.00 0.02 0.04 0.05 0.04 0.03 0.04 0.05 0.03
0.04 0.06 0.07 0.08 0.08 0.07 0.07 0.08 0.10 0.11 0.11 0.09 0.07 0.06 0.04 0.03 0.03 0.03 0.02 0.02 0.02 0.02 0.02 0.02 0.02 0.01 0.01 0.01 0.01 0.01 0.01 0.01 0.00 0.00 0.00 0.02 0.04 0.05 0.05 0.04 0.03 0.03 0.03
0.05 0.05 0.06 0.07 0.09 0.08 0.07 0.07 0.09 0.11 0.12 0.10 0.07 0.05 0.05 0.05 0.04 0.03 0.02 0.02 0.01 0.01 0.02 0.02 0.02 0.01 0.01 0.01 0.02 0.01 0.01 0.01 0.01 0.00 0.00 0.01 0.03 0.04 0.07 0.08 0.05 0.04 0.04
0.05 0.05 0.05 0.06 0.07 0.08 0.08 0.08 0.09 0.11 0.11 0.10 0.09 0.07 0.05 0.05 0.04 0.03 0.02 0.02 0.01 0.01 0.01 0.02 0.02 0.02 0.02 0.01 0.01 0.01 0.02 0.02 0.02 0.01 0.00 0.01 0.01 0.02 0.05 0.10 0.11 0.06 0.04
0.06 0.06 0.06 0.06 0.06 0.06 0.07 0.07 0.07 0.09 0.11 0.11 0.09 0.07 0.06 0.05 0.05 0.04 0.04 0.03 0.02 0.02 0.02 0.02 0.02 0.02 0.02 0.02 0.01 0.01 0.01 0.01 0.02 0.02 0.02 0.01 0.01 0.01 0.02 0.06 0.11 0.08 0.05
0.07 0.07 0.07 0.07 0.06 0.05 0.06 0.07 0.06 0.08 0.10 0.12 0.13 0.11 0.08 0.07 0.06 0.06 0.05 0.04 0.04 0.04 0.04 0.04 0.04 0.03 0.02 0.02 0.02 0.02 0.01 0.01 0.01 0.02 0.02 0.02 0.01 0.01 0.01 0.03 0.07 0.09 0.06
0.08 0.09 0.08 0.08 0.07 0.06 0.06 0.06 0.08 0.08 0.10 0.12 0.14 0.13 0.11 0.08 0.07 0.05 0.05 0.03 0.04 0.05 0.06 0.07 0.07 0.05 0.04 0.03 0.02 0.02 0.02 0.01 0.01 0.01 0.02 0.02 0.01 0.01 0.01 0.02 0.03 0.06 0.07
0.07 0.09 0.09 0.10 0.10 0.08 0.08 0.07 0.07 0.08 0.09 0.11 0.11 0.11 0.09 0.09 0.08 0.06 0.04 0.03 0.04 0.05 0.06 0.08 0.11 0.11 0.09 0.07 0.04 0.04 0.03 0.02 0.01 0.01 0.01 0.02 0.01 0.01 0.01 0.01 0.01 0.02 0.04
0.07 0.09 0.10 0.10 0.11 0.11 0.10 0.09 0.08 0.07 0.08 0.11 0.12 0.09 0.06 0.06 0.06 0.07 0.06 0.04 0.03 0.04 0.05 0.08 0.10 0.12 0.12 0.10 0.08 0.05 0.04 0.03 0.03 0.03 0.02 0.02 0.01 0.01 0.01 0.01 0.01 0.01 0.02
0.07 0.08 0.09 0.11 0.12 0.12 0.10 0.08 0.09 0.09 0.08 0.10 0.12 0.12 0.08 0.05 0.04 0.04 0.06 0.06 0.05 0.04 0.04 0.05 0.07 0.09 0.11 0.11 0.10 0.08 0.05 0.04 0.03 0.03 0.03 0.02 0.02 0.02 0.01 0.01 0.01 0.01 0.01
0.06 0.07 0.07 0.09 0.12 0.12 0.10 0.08 0.08 0.10 0.10 0.10 0.12 0.14 0.13 0.09 0.05 0.03 0.03 0.03 0.04 0.03 0.03 0.03 0.03 0.06 0.10 0.13 0.14 0.13 0.10 0.07 0.04 0.03 0.02 0.02 0.02 0.02 0.03 0.02 0.01 0.01 0.01
0.06 0.06 0.06 0.07 0.12 0.13 0.11 0.09 0.09 0.09 0.10 0.10 0.10 0.10 0.12 0.14 0.12 0.07 0.05 0.03 0.03 0.03 0.02 0.02 0.02 0.02 0.04 0.08 0.11 0.14 0.15 0.11 0.08 0.06 0.04 0.03 0.02 0.02 0.03 0.04 0.03 0.02 0.02
0.05 0.05 0.05 0.05 0.10 0.17 0.15 0.10 0.08 0.09 0.09 0.09 0.09 0.08 0.08 0.09 0.13 0.13 0.10 0.07 0.05 0.04 0.03 0.01 0.01 0.02 0.02 0.02 0.04 0.07 0.11 0.13 0.11 0.10 0.09 0.06 0.04 0.03 0.03 0.03 0.03 0.04 0.03
0.05 0.05 0.06 0.07 0.07 0.13 0.21 0.16 0.11 0.08 0.08 0.09 0.08 0.07 0.08 0.07 0.08 0.10 0.11 0.09 0.08 0.06 0.05 0.03 0.02 0.01 0.01 0.02 0.02 0.02 0.04 0.06 0.07 0.07 0.07 0.07 0.06 0.04 0.04 0.03 0.03 0.03 0.03
0.06 0.05 0.06 0.08 0.07 0.07 0.13 0.20 0.18 0.12 0.09 0.08 0.08 0.07 0.07 0.08 0.07 0.07 0.08 0.08 0.08 0.07 0.06 0.05 0.03 0.02 0.02 0.02 0.02 0.02 0.02 0.03 0.04 0.04 0.04 0.04 0.04 0.03 0.03 0.02 0.02 0.03 0.03
MSLP
1010.91 1010.79 1010.91 1011.25 1011.72 1012.24 1012.73 1013.13 1013.43 1013.63 1013.78 1013.94 1014.16 1014.49 1014.90 1015.39 1015.90 1016.37 1016.77 1017.07 1017.28 1017.44 1017.58 1017.75 1017.97 1018.23 1018.53 1018.83 1019.09 1019.29 1019.42 1019.50 1019.53 1019.55 1019.57 1019.58 1019.60 1019.59 1019.54 1019.44 1019.29 1019.10 1018.89
1010.56 1010.43 1010.57 1010.94 1011.47 1012.06 1012.65 1013.14 1013.52 1013.79 1013.98 1014.17 1014.41 1014.74 1015.17 1015.66 1016.19 1016.68 1017.09 1017.41 1017.63 1017.80 1017.95 1018.13 1018.36 1018.63 1018.94 1019.25 1019.52 1019.72 1019.85 1019.92 1019.95 1019.96 1019.97 1020.00 1020.03 1020.04 1020.01 1019.93 1019.79 1019.60 1019.39
1010.22 1010.07 1010.20 1010.58 1011.16 1011.84 1012.51 1013.11 1013.59 1013.94 1014.20 1014.42 1014.67 1015.00 1015.42 1015.90 1016.41 1016.89 1017.31 1017.63 1017.87 1018.05 1018.23 1018.43 1018.68 1018.98 1019.31 1019.64 1019.93 1020.15 1020.28 1020.35 1020.37 1020.37 1020.38 1020.40 1020.44 1020.47 1020.47 1020.41 1020.30 1020.13 1019.92
1009.99 1009.81 1009.90 1010.29 1010.89 1011.62 1012.38 1013.07 1013.64 1014.07 1014.39 1014.65 1014.91 1015.22 1015.61 1016.05 1016.53 1016.99 1017.40 1017.72 1017.98 1018.19 1018.40 1018.63 1018.93 1019.27 1019.64 1020.01 1020.33 1020.57 1020.72 1020.79 1020.80 1020.79 1020.78 1020.79 1020.83 1020.86 1020.88 1020.86 1020.78 1020.64 1020.46
1009.97 1009.73 1009.78 1010.14 1010.73 1011.49 1012.29 1013.04 1013.68 1014.17 1014.53 1014.81 1015.08 1015.37 1015.72 1016.13 1016.57 1017.01 1017.40 1017.74 1018.02 1018.26 1018.51 1018.80 1019.13 1019.53 1019.95 1020.36 1020.71 1020.98 1021.16 1021.23 1021.24 1021.21 1021.18 1021.17 1021.19 1021.22 1021.25 1021.25 1021.21 1021.12 1020.98
1010.18 1009.88 1009.87 1010.17 1010.72 1011.45 1012.25 1013.02 1013.69 1014.22 1014.61 1014.91 1015.17 1015.45 1015.78 1016.16 1016.57 1016.99 1017.39 1017.74 1018.05 1018.34 1018.63 1018.96 1019.35 1019.78 1020.25 1020.70 1021.10 1021.40 1021.59 1021.68 1021.69 1021.64 1021.58 1021.53 1021.52 1021.54 1021.57 1021.60 1021.60 1021.56 1021.48
1010.60 1010.24 1010.15 1010.37 1010.85 1011.51 1012.27 1013.02 1013.68 1014.22 1014.63 1014.95 1015.22 1015.51 1015.83 1016.20 1016.61 1017.04 1017.45 1017.82 1018.17 1018.49 1018.82 1019.19 1019.61 1020.08 1020.57 1021.05 1021.48 1021.81 1022.03 1022.13 1022.13 1022.06 1021.97 1021.89 1021.85 1021.84 1021.87 1021.91 1021.95 1021.97 1021.95
1011.16 1010.74 1010.57 1010.68 1011.06 1011.63 1012.31 1013.00 1013.64 1014.18 1014.61 1014.95 1015.26 1015.58 1015.92 1016.32 1016.75 1017.19 1017.63 1018.03 1018.40 1018.76 1019.12 1019.51 1019.94 1020.42 1020.93 1021.42 1021.86 1022.20 1022.44 1022.55 1022.55 1022.47 1022.36 1022.25 1022.17 1022.14 1022.16 1022.21 1022.29 1022.36 1022.40
1011.76 1011.27 1011.01 1011.03 1011.29 1011.74 1012.32 1012.95 1013.55 1014.09 1014.55 1014.95 1015.32 1015.69 1016.09 1016.52 1016.99 1017.47 1017.93 1018.36 1018.76 1019.14 1019.51 1019.91 1020.34 1020.81 1021.30 1021.78 1022.22 1022.57 1022.81 1022.94 1022.95 1022.87 1022.75 1022.62 1022.51 1022.46 1022.47 1022.53 1022.63 1022.74 1022.83
1012.31 1011.76 1011.42 1011.32 1011.46 1011.80 1012.28 1012.84 1013.41 1013.96 1014.47 1014.94 1015.39 1015.84 1016.31 1016.81 1017.32 1017.83 1018.32 1018.77 1019.19 1019.58 1019.96 1020.35 1020.76 1021.21 1021.68 1022.14 1022.56 1022.90 1023.15 1023.28 1023.31 1023.24 1023.12 1022.99 1022.88 1022.82 1022.82 1022.88 1023.00 1023.13 1023.27
1012.77 1012.16 1011.73 1011.53 1011.55 1011.78 1012.16 1012.65 1013.21 1013.79 1014.36 1014.91 1015.46 1016.01 1016.55 1017.11 1017.66 1018.20 1018.70 1019.18 1019.61 1020.01 1020.39 1020.78 1021.18 1021.61 1022.05 1022.48 1022.87 1023.21 1023.45 1023.60 1023.64 1023.60 1023.50 1023.38 1023.27 1023.21 1023.21 1023.27 1023.39 1023.55 1023.70
1013.14 1012.47 1011.95 1011.64 1011.54 1011.65 1011.95 1012.39 1012.94 1013.56 1014.20 1014.86 1015.51 1016.14 1016.76 1017.36 1017.94 1018.49 1019.01 1019.49 1019.93 1020.35 1020.76 1021.16 1021.57 1021.99 1022.41 1022.81 1023.19 1023.50 1023.74 1023.89 1023.95 1023.94 1023.87 1023.77 1023.69 1023.63 1023.64 1023.70 1023.82 1023.98 1024.15
1013.47 1012.72 1012.11 1011.67 1011.45 1011.44 1011.65 1012.05 1012.60 1013.26 1013.99 1014.74 1015.48 1016.20 1016.88 1017.51 1018.10 1018.65 1019.16 1019.65 1020.12 1020.57 1021.02 1021.47 1021.91 1022.35 1022.77 1023.17 1023.52 1023.82 1024.04 1024.20 1024.27 1024.28 1024.25 1024.19 1024.13 1024.09 1024.10 1024.17 1024.28 1024.43 1024.59
1013.80 1012.96 1012.23 1011.66 1011.30 1011.17 1011.29 1011.64 1012.19 1012.90 1013.70 1014.54 1015.38 1016.16 1016.88 1017.53 1018.12 1018.66 1019.16 1019.66 1020.16 1020.67 1021.19 1021.71 1022.21 1022.70 1023.15 1023.55 1023.90 1024.18 1024.39 1024.54 1024.63 1024.66 1024.65 1024.62 1024.59 1024.58 1024.60 1024.65 1024.75 1024.88 1025.03
1014.19 1013.22 1012.35 1011.63 1011.12 1010.86 1010.88 1011.18 1011.73 1012.47 1013.34 1014.27 1015.17 1016.02 1016.77 1017.43 1018.00 1018.53 1019.04 1019.55 1020.10 1020.68 1021.28 1021.90 1022.50 1023.06 1023.56 1023.99 1024.33 1024.60 1024.80 1024.94 1025.03 1025.07 1025.09 1025.09 1025.09 1025.09 1025.11 1025.16 1025.24 1025.34 1025.47
1014.62 1013.52 1012.49 1011.60 1010.92 1010.52 1010.44 1010.68 1011.21 1011.98 1012.91 1013.91 1014.88 1015.78 1016.57 1017.24 1017.81 1018.33 1018.84 1019.38 1019.98 1020.64 1021.34 1022.07 1022.77 1023.42 1023.99 1024.45 1024.81 1025.08 1025.27 1025.40 1025.48 1025.54 1025.58 1025.60 1025.62 1025.64 1025.66 1025.69 1025.74 1025.81 1025.90
1015.07 1013.82 1012.62 1011.55 1010.71 1010.17 1009.97 1010.14 1010.65 1011.44 1012.42 1013.48 1014.53 1015.49 1016.31 1017.01 1017.59 1018.11 1018.63 1019.20 1019.85 1020.59 1021.38 1022.21 1023.02 1023.76 1024.39 1024.91 1025.30 1025.57 1025.76 1025.89 1025.98 1026.05 1026.10 1026.15 1026.19 1026.22 1026.24 1026.26 1026.28 1026.30 1026.35
1015.49 1014.09 1012.72 1011.49 1010.48 1009.79 1009.49 1009.59 1010.07 1010.87 1011.89 1013.01 1014.13 1015.15 1016.03 1016.76 1017.38 1017.92 1018.46 1019.06 1019.75 1020.54 1021.41 1022.32 1023.21 1024.02 1024.73 1025.29 1025.72 1026.02 1026.23 1026.37 1026.48 1026.57 1026.66 1026.73 1026.80 1026.84 1026.86 1026.85 1026.83 1026.82 1026.82
1015.82 1014.29 1012.77 1011.38 1010.23 1009.41 1009.00 1009.03 1009.47 1010.27 1011.32 1012.50 1013.69 1014.78 1015.73 1016.52 1017.18 1017.76 1018.32 1018.94 1019.66 1020.48 1021.39 1022.34 1023.28 1024.16 1024.91 1025.53 1026.00 1026.35 1026.60 1026.79 1026.94 1027.08 1027.20 1027.32 1027.41 1027.47 1027.49 1027.47 1027.42 1027.36 1027.31
1016.05 1014.40 1012.76 1011.25 1009.98 1009.04 1008.53 1008.48 1008.88 1009.66 1010.73 1011.95 1013.20 1014.37 1015.40 1016.27 1016.98 1017.60 1018.20 1018.83 1019.55 1020.37 1021.28 1022.25 1023.21 1024.11 1024.91 1025.57 1026.10 1026.51 1026.83 1027.09 1027.30 1027.51 1027.69 1027.86 1027.99 1028.08 1028.11 1028.08 1028.01 1027.92 1027.83
1016.18 1014.45 1012.72 1011.11 1009.74 1008.71 1008.11 1007.98 1008.32 1009.07 1010.13 1011.37 1012.67 1013.91 1015.01 1015.95 1016.74 1017.41 1018.04 1018.68 1019.39 1020.19 1021.07 1022.01 1022.96 1023.87 1024.69 1025.40 1025.99 1026.48 1026.88 1027.23 1027.53 1027.82 1028.08 1028.31 1028.49 1028.61 1028.66 1028.64 1028.57 1028.46 1028.35
1016.25 1014.47 1012.68 1011.01 1009.56 1008.45 1007.76 1007.55 1007.81 1008.50 1009.53 1010.76 1012.08 1013.36 1014.54 1015.55 1016.41 1017.14 1017.80 1018.45 1019.15 1019.91 1020.75 1021.65 1022.56 1023.45 1024.29 1025.04 1025.69 1026.26 1026.75 1027.19 1027.60 1027.97 1028.31 1028.60 1028.84 1029.00 1029.09 1029.10 1029.04 1028.94 1028.83
1016.32 1014.51 1012.69 1010.98 1009.47 1008.29 1007.52 1007.22 1007.38 1007.98 1008.94 1010.13 1011.43 1012.73 1013.95 1015.02 1015.95 1016.75 1017.46 1018.14 1018.83 1019.56 1020.36 1021.20 1022.07 1022.94 1023.77 1024.54 1025.25 1025.89 1026.47 1027.00 1027.49 1027.94 1028.34 1028.70 1028.99 1029.20 1029.34 1029.39 1029.37 1029.31 1029.22
1016.43 1014.61 1012.78 1011.04 1009.49 1008.25 1007.40 1006.99 1007.04 1007.52 1008.37 1009.47 1010.72 1012.01 1013.25 1014.38 1015.37 1016.24 1017.02 1017.74 1018.45 1019.17 1019.94 1020.74 1021.57 1022.41 1023.22 1024.01 1024.75 1025.44 1026.08 1026.67 1027.22 1027.73 1028.18 1028.58 1028.92 1029.18 1029.36 1029.47 1029.51 1029.51 1029.48
1016.60 1014.78 1012.95 1011.19 1009.62 1008.32 1007.38 1006.86 1006.78 1007.12 1007.83 1008.81 1009.97 1011.21 1012.45 1013.61 1014.68 1015.63 1016.49 1017.28 1018.03 1018.78 1019.55 1020.33 1021.13 1021.94 1022.74 1023.52 1024.27 1024.98 1025.64 1026.26 1026.84 1027.37 1027.85 1028.27 1028.64 1028.94 1029.17 1029.34 1029.46 1029.53 1029.58
1016.83 1015.01 1013.19 1011.42 1009.82 1008.47 1007.45 1006.82 1006.60 1006.77 1007.32 1008.15 1009.20 1010.36 1011.57 1012.76 1013.89 1014.93 1015.89 1016.78 1017.61 1018.42 1019.21 1020.00 1020.80 1021.58 1022.36 1023.12 1023.85 1024.55 1025.21 1025.82 1026.39 1026.92 1027.39 1027.82 1028.20 1028.53 1028.81 1029.04 1029.24 1029.40 1029.53
Thickness
5710 5712 5714 5714 5714 5715 5715 5715 5715 5715 5715 5715 5714 5714 5714 5713 5712 5712 5712 5712 5712 5712 5712 5712 5712 5711 5710 5710 5709 5709 5708 5707 5707 5706 5706 5706 5705 5705 5704 5703 5703 5703 5703
5710 5711 5711 5711 5711 5712 5712 5712 5711 5711 5711 5711 5711 5711 5711 5710 5710 5709 5709 5709 5709 5709 5709 5709 5708 5707 5707 5706 5706 5705 5704 5704 5702 5702 5702 5702 5701 5701 5700 5700 5700 5699 5699
5708 5708 5708 5708 5708 5708 5708 5708 5708 5708 5708 5707 5707 5707 5707 5707 5707 5706 5706 5706 5705 5705 5705 5705 5705 5704 5703 5702 5702 5701 5700 5700 5699 5698 5698 5698 5698 5697 5697 5696 5696 5695 5695
5703 5704 5704 5704 5704 5704 5704 5704 5704 5704 5704 5704 5703 5704 5704 5703 5703 5703 5703 5702 5702 5701 5701 5701 5701 5700 5699 5698 5697 5697 5696 5695 5694 5694 5694 5695 5695 5694 5693 5693 5692 5692 5691
5697 5698 5699 5700 5700 5700 5700 5700 5699 5699 5700 5699 5699 5700 5700 5700 5699 5699 5699 5698 5698 5698 5698 5697 5697 5696 5695 5694 5693 5692 5691 5691 5690 5690 5690 5691 5691 5690 5689 5689 5688 5687 5686
5691 5692 5693 5694 5694 5694 5695 5695 5695 5695 5695 5695 5695 5695 5695 5695 5695 5695 5695 5694 5694 5694 5693 5693 5692 5692 5691 5690 5689 5688 5687 5686 5686 5686 5686 5686 5686 5686 5685 5685 5684 5683 5682
5684 5685 5686 5688 5689 5689 5689 5689 5690 5690 5690 5690 5690 5691 5691 5691 5691 5691 5691 5690 5690 5690 5689 5689 5688 5687 5686 5686 5685 5684 5683 5682 5682 5682 5682 5682 5682 5682 5681 5681 5680 5679 5678
5676 5677 5679 5680 5682 5683 5683 5684 5684 5684 5684 5685 5685 5686 5686 5686 5686 5686 5686 5686 5685 5685 5685 5684 5684 5683 5682 5681 5680 5679 5678 5678 5677 5677 5677 5677 5677 5677 5677 5676 5675 5674 5673
5667 5669 5671 5673 5674 5675 5677 5677 5678 5678 5678 5679 5680 5680 5680 5680 5681 5681 5681 5681 5680 5680 5680 5679 5679 5678 5677 5676 5675 5675 5674 5673 5673 5673 5673 5673 5672 5672 5672 5672 5671 5670 5669
5657 5659 5661 5664 5666 5667 5669 5670 5671 5672 5672 5673 5673 5674 5675 5675 5675 5675 5675 5675 5675 5675 5675 5674 5674 5673 5672 5671 5670 5670 5669 5668 5668 5668 5668 5668 5668 5668 5667 5666 5666 5665 5664
5647 5649 5652 5655 5657 5659 5661 5662 5664 5665 5665 5666 5666 5667 5668 5668 5669 5669 5669 5669 5669 5670 5669 5669 5668 5667 5667 5666 5665 5664 5664 5663 5663 5663 5663 5663 5663 5662 5662 5661 5661 5660 5658
5635 5638 5642 5645 5647 5650 5652 5654 5656 5657 5658 5658 5659 5660 5660 5661 5662 5662 5663 5663 5663 5663 5663 5663 5662 5661 5661 5660 5659 5659 5658 5658 5657 5657 5657 5658 5658 5657 5657 5656 5655 5654 5653
5623 5627 5631 5635 5637 5640 5643 5645 5647 5648 5649 5650 5651 5652 5653 5654 5654 5655 5656 5656 5657 5657 5657 5656 5655 5655 5654 5654 5653 5653 5652 5652 5651 5651 5652 5652 5652 5652 5651 5650 5650 5649 5647
5612 5617 5621 5625 5628 5630 5633 5636 5638 5640 5641 5642 5643 5644 5645 5646 5647 5648 5649 5649 5650 5650 5650 5650 5649 5648 5648 5647 5647 5647 5646 5646 5646 5646 5646 5646 5646 5646 5646 5645 5644 5643 5642
5601 5605 5610 5614 5618 5620 5623 5626 5628 5630 5632 5633 5634 5635 5637 5638 5639 5640 5641 5642 5643 5643 5643 5642 5642 5642 5641 5641 5641 5641 5640 5640 5640 5640 5640 5640 5640 5640 5640 5640 5639 5637 5636
5589 5594 5599 5604 5608 5610 5613 5616 5618 5621 5623 5624 5626 5627 5629 5630 5631 5632 5633 5634 5635 5635 5635 5635 5635 5635 5635 5634 5634 5634 5633 5633 5633 5633 5633 5633 5633 5633 5633 5633 5633 5631 5630
5578 5583 5588 5593 5597 5600 5603 5606 5609 5611 5614 5615 5617 5619 5620 5622 5623 5624 5625 5625 5626 5627 5628 5628 5627 5628 5628 5627 5627 5626 5626 5626 5626 5626 5627 5627 5626 5626 5626 5626 5626 5625 5624
5567 5572 5577 5582 5586 5590 5593 5596 5599 5601 5603 5605 5608 5609 5612 5613 5614 5616 5617 5617 5618 5619 5619 5619 5619 5619 5619 5619 5619 5619 5619 5619 5619 5619 5619 5620 5619 5619 5619 5619 5619 5618 5617
5556 5562 5566 5571 5576 5579 5582 5586 5589 5592 5593 5595 5597 5600 5602 5604 5605 5606 5608 5608 5609 5610 5610 5611 5610 5611 5610 5610 5610 5610 5611 5611 5611 5611 5612 5612 5612 5612 5612 5612 5611 5611 5610
5543 5550 5555 5560 5564 5568 5572 5575 5578 5581 5583 5584 5586 5589 5592 5594 5595 5597 5598 5599 5600 5601 5601 5602 5602 5602 5602 5602 5603 5602 5602 5603 5604 5604 5604 5605 5605 5605 5605 5605 5604 5604 5604
5532 5538 5544 5549 5552 5557 5561 5564 5566 5569 5571 5574 5576 5578 5580 5583 5585 5587 5588 5589 5590 5591 5592 5593 5593 5593 5592 5593 5593 5593 5593 5595 5596 5596 5597 5597 5597 5598 5598 5598 5597 5597 5597
5519 5526 5532 5536 5540 5545 5549 5552 5554 5557 5560 5562 5564 5567 5569 5572 5574 5577 5578 5580 5581 5582 5582 5583 5584 5583 5583 5584 5585 5584 5585 5585 5587 5589 5589 5590 5590 5591 5591 5590 5590 5590 5590
5508 5514 5519 5523 5528 5532 5536 5540 5543 5546 5548 5550 5553 5555 5557 5561 5563 5566 5567 5569 5571 5572 5573 5573 5575 5575 5574 5574 5576 5578 5577 5578 5577 5580 5581 5582 5582 5583 5583 5584 5584 5584 5584
5495 5500 5506 5511 5516 5520 5524 5528 5531 5534 5536 5538 5541 5543 5545 5549 5552 5554 5556 5558 5560 5562 5563 5564 5566 5567 5567 5566 5567 5569 5570 5571 5570 5571 5572 5574 5575 5576 5576 5577 5577 5577 5577
5482 5487 5493 5498 5502 5506 5511 5515 5518 5521 5523 5526 5529 5532 5534 5537 5540 5543 5545 5548 5549 5552 5554 5555 5556 5558 5558 5559 5559 5560 5560 5561 5563 5564 5564 5565 5567 5568 5569 5570 5570 5571 5571
5469 5475 5481 5485 5489 5493 5498 5502 5506 5508 5510 5514 5517 5520 5522 5526 5529 5532 5535 5537 5539 5541 5543 5545 5548 5549 5550 5551 5552 5553 5553 5554 5554 5555 5556 5557 5558 5560 5561 5562 5563 5564 5564